Location: L�tisburg
(47.3947°N, 9.0820°E)
Time: 20:10:22
(UTC+00:00)

Cosmos 2322 Rocket - Pass Details

Date: 03 March 2021
Orbit: 832 x 852 km, 71.0° (Epoch: 14 April)

Event Time Altitude Azimuth Distance (km) Brightness Sun altitude
Rises 19:07:29 0° 229° (SW) 3,367 5.8 -20.3°
Reaches altitude 10° 19:10:04 10° 237° (WSW) 2,437 5.2 -20.7°
Maximum altitude 19:15:18 40° 306° (NW) 1,214 3.5 -21.5°
Drops below altitude 10° 19:20:35 10° 16° (NNE) 2,458 4.6 -22.4°
Sets 19:23:12 0° 24° (NNE) 3,398 5.3 -22.8°
